This is the latest recevied weather packets stored in our database for station/object BM2MWA-13. If no packets are shown the sender has not sent any weather packets the latest 10 day(s).
| Time | Temp. | Humidity | Pressure | Rain* | Wind** | Luminosity | Snow |
|---|---|---|---|---|---|---|---|
| 1787577424 | 25.56° C | 94% | 1002.1 hPa | 2.03 mm | - | - | - |
| 1787576824 | 26.11° C | 94% | 1002 hPa | 1.02 mm | - | - | - |
| 1787576224 | 26.11° C | 94% | 1001.9 hPa | 1.02 mm | - | - | - |
| 1787575624 | 26.11° C | 94% | 1001.8 hPa | 1.02 mm | - | - | - |
| 1787575023 | 26.11° C | 93% | 1001.6 hPa | 1.02 mm | - | - | - |
| 1787574423 | 26.11° C | 92% | 1001.4 hPa | 1.52 mm | - | - | - |
| 1787573824 | 26.11° C | 94% | 1001.3 hPa | 1.52 mm | - | - | - |
| 1787573223 | 26.11° C | 95% | 1001.2 hPa | 1.52 mm | - | - | - |
| 1787572623 | 26.11° C | 93% | 1001.1 hPa | 1.52 mm | - | - | - |
| 1787572024 | 26.11° C | 93% | 1001.1 hPa | 1.52 mm | - | - | - |
| 1787571426 | 25.56° C | 94% | 1001 hPa | 1.52 mm | - | - | - |
| 1787570823 | 26.11° C | 93% | 1000.9 hPa | 1.02 mm | - | - | - |
| 1787570223 | 26.11° C | 92% | 1000.9 hPa | 0.51 mm | - | - | - |
| 1787569624 | 26.11° C | 91% | 1000.9 hPa | 1.02 mm | - | - | - |
| 1787569023 | 26.11° C | 92% | 1000.8 hPa | 1.52 mm | - | - | - |
| 1787568423 | 26.11° C | 91% | 1000.7 hPa | 1.52 mm | - | - | - |
| 1787567823 | 26.11° C | 90% | 1000.5 hPa | 2.54 mm | - | - | - |
| 1787567224 | 26.11° C | 94% | 1000.2 hPa | 2.54 mm | - | - | - |
| 1787566623 | 26.11° C | 92% | 1000 hPa | 3.05 mm | - | - | - |
| 1787566023 | 26.11° C | 94% | 999.8 hPa | 2.54 mm | - | - | - |
| 1787565425 | 26.11° C | 91% | 999.5 hPa | 3.05 mm | - | - | - |
| 1787564823 | 26.67° C | 89% | 999.3 hPa | 3.05 mm | - | - | - |
| 1787564223 | 26.67° C | 89% | 999.2 hPa | 2.54 mm | - | - | - |
| 1787563625 | 26.67° C | 88% | 999.3 hPa | 2.54 mm | - | - | - |
| 1787563024 | 26.67° C | 85% | 999.4 hPa | 2.54 mm | - | - | - |
* Rain latest hour (hover to see other rain measurements)
** Current wind speed in m/s (hover to see current wind gust speed)